Weather History for KM30 - April, 2013

Change the Weather History Date:

Sunday, April 28, 2013

  Actual Average (KPAH) Record (KPAH)
Temperature  
Mean Temperature 56 °F 62 °F  
Max Temperature 60 °F 73 °F 87 °F (1943)
Min Temperature 53 °F 51 °F 32 °F (1992)
Degree Days  
Heating Degree Days 8 5  
Month to date heating degree days 235  
Since 1 July heating degree days 4054  
Cooling Degree Days 0 2  
Month to date cooling degree days 34  
Year to date cooling degree days 41  
Growing Degree Days 6 (Base 50)    
Moisture  
Dew Point 55 °F    
Average Humidity 92    
Maximum Humidity 100    
Minimum Humidity 77    
Precipitation  
Precipitation 0.04 in 0.17 in 1.55 in (2014)
Month to date precipitation 4.42  
Year to date precipitation 15.94  
Snow  
Snow 0.00 in 0.00 in 0.00 in (2002)
Month to date snowfall 0.0  
Since 1 July snowfall 9.1  
Snow Depth -    
Sea Level Pressure  
Sea Level Pressure 29.93 in    
Wind  
Wind Speed 4 mph (West)    
Max Wind Speed 10 mph    
Max Gust Speed -    
Visibility 9 miles    
Events      
T = Trace of Precipitation, MM = Missing Value Source: NWS Daily Summary

Daily Weather History Graph

Daily Weather History Graph

Search for Another Location

Airport or City:

Trip Planner

Search our weather history database for the weather conditions in past years. The results will help you decide how hot, cold, wet, or windy it might be!

Date:

Astronomy

Apr. 28, 2013 Rise Set
Actual Time 6:03 AM CDT 7:41 PM CDT
Civil Twilight 5:35 AM CDT 8:09 PM CDT
Nautical Twilight 5:02 AM CDT 8:43 PM CDT
Astronomical Twilight 4:27 AM CDT 9:18 PM CDT
Moon 11:09 PM CDT (4/28) 8:22 AM CDT (4/28)
Length of Visible Light 14h 33m
Length of Day
13h 38m
Waning Gibbous, 88% of the Moon is Illuminated
Apr 28
Waning Gibbous
May 2
Last Quarter
May 9
New
May 17
First Quarter
May 24
Full

Hourly Weather History & Observations

Time (CDT) Temp. Dew Point Humidity Pressure Visibility Wind Dir Wind Speed Gust Speed Precip Events Conditions
12:15 AM 58.5 °F 58.5 °F 100% 29.90 in 1.8 mi Calm Calm - N/A   Overcast
12:35 AM 58.5 °F 58.5 °F 100% 29.90 in 1.5 mi Calm Calm - N/A   Overcast
12:55 AM 58.6 °F 58.6 °F 100% 29.90 in 1.2 mi South 3.5 mph - N/A   Overcast
1:15 AM 58.6 °F 58.6 °F 100% 29.90 in 1.2 mi South 4.6 mph - N/A   Overcast
1:35 AM 58.8 °F 58.8 °F 100% 29.90 in 1.0 mi WSW 3.5 mph - N/A   Overcast
1:55 AM 58.3 °F 58.3 °F 100% 29.90 in 1.8 mi WSW 9.2 mph - N/A   Overcast
2:15 AM 57.0 °F 57.0 °F 100% 29.88 in 5.0 mi West 8.1 mph - N/A   Overcast
2:35 AM 56.8 °F 56.8 °F 100% 29.88 in 3.0 mi West 5.8 mph - N/A   Light Drizzle
2:55 AM 56.8 °F 56.8 °F 100% 29.88 in 10.0 mi WSW 5.8 mph - N/A   Overcast
3:15 AM 56.7 °F 56.7 °F 100% 29.88 in 10.0 mi West 10.4 mph - N/A   Overcast
3:35 AM 56.3 °F 56.3 °F 100% 29.88 in 10.0 mi West 6.9 mph - N/A   Overcast
3:55 AM 55.8 °F 55.8 °F 100% 29.89 in 10.0 mi WSW 9.2 mph - N/A   Overcast
4:15 AM 55.0 °F 55.0 °F 100% 29.89 in 10.0 mi WSW 6.9 mph - N/A   Overcast
4:35 AM 54.9 °F 54.9 °F 100% 29.89 in 10.0 mi WSW 5.8 mph - N/A   Overcast
4:55 AM 54.7 °F 54.7 °F 100% 29.90 in 10.0 mi West 6.9 mph - N/A   Overcast
5:15 AM 54.5 °F 54.5 °F 100% 29.90 in 10.0 mi Calm Calm - N/A   Overcast
5:35 AM 54.5 °F 54.5 °F 100% 29.91 in 10.0 mi West 3.5 mph - N/A   Overcast
5:55 AM 54.5 °F 54.5 °F 100% 29.92 in 10.0 mi WSW 4.6 mph - N/A   Overcast
6:15 AM 54.5 °F 54.5 °F 100% 29.92 in 10.0 mi Calm Calm - N/A   Overcast
6:35 AM 54.5 °F 54.5 °F 100% 29.93 in 10.0 mi WSW 3.5 mph - N/A   Overcast
6:55 AM 54.5 °F 54.5 °F 100% 29.93 in 10.0 mi West 5.8 mph - N/A   Overcast
7:15 AM 54.3 °F 54.1 °F 99% 29.93 in 10.0 mi WNW 8.1 mph - N/A   Overcast
7:35 AM 54.5 °F 53.6 °F 97% 29.94 in 10.0 mi West 5.8 mph - N/A   Overcast
7:55 AM 54.7 °F 53.4 °F 96% 29.93 in 10.0 mi West 5.8 mph - N/A   Overcast
8:15 AM 54.9 °F 53.8 °F 96% 29.94 in 10.0 mi WSW 3.5 mph - N/A   Overcast
8:35 AM 54.7 °F 54.1 °F 98% 29.95 in 10.0 mi WSW 6.9 mph - N/A   Overcast
8:55 AM 54.9 °F 54.1 °F 97% 29.95 in 10.0 mi WSW 6.9 mph - N/A   Overcast
9:15 AM 55.4 °F 54.1 °F 96% 29.95 in 10.0 mi WSW 4.6 mph - N/A   Overcast
9:35 AM 55.9 °F 54.0 °F 93% 29.95 in 10.0 mi WSW 6.9 mph - N/A   Overcast
9:55 AM 56.3 °F 54.0 °F 92% 29.95 in 10.0 mi WSW 5.8 mph - N/A   Overcast
10:15 AM 57.2 °F 54.0 °F 89% 29.95 in 10.0 mi WSW 8.1 mph - N/A   Overcast
10:35 AM 57.6 °F 54.3 °F 89% 29.95 in 10.0 mi WSW 6.9 mph - N/A   Overcast
10:55 AM 57.9 °F 54.7 °F 89% 29.95 in 10.0 mi WSW 6.9 mph - N/A   Overcast
11:15 AM 57.9 °F 54.5 °F 88% 29.95 in 10.0 mi West 8.1 mph - N/A   Overcast
11:35 AM 58.1 °F 54.1 °F 87% 29.95 in 10.0 mi West 10.4 mph - N/A   Overcast
11:55 AM 58.1 °F 54.5 °F 88% 29.94 in 10.0 mi West 9.2 mph - N/A   Overcast
12:15 PM 57.2 °F 53.8 °F 88% 29.95 in 10.0 mi West 8.1 mph - N/A   Overcast
12:35 PM 58.1 °F 54.5 °F 88% 29.95 in 10.0 mi West 5.8 mph - N/A   Overcast
12:55 PM 58.3 °F 54.0 °F 86% 29.95 in 10.0 mi West 8.1 mph - N/A   Overcast
1:15 PM 58.3 °F 52.5 °F 81% 29.96 in 10.0 mi West 10.4 mph - N/A   Overcast
1:35 PM 58.5 °F 52.9 °F 82% 29.96 in 10.0 mi West 5.8 mph - N/A   Overcast
1:55 PM 58.5 °F 52.7 °F 81% 29.96 in 10.0 mi West 6.9 mph - N/A   Overcast
2:15 PM 58.1 °F 52.9 °F 83% 29.96 in 10.0 mi NW 5.8 mph - N/A   Overcast
2:35 PM 58.6 °F 53.1 °F 82% 29.96 in 10.0 mi NW 5.8 mph - N/A   Overcast
2:55 PM 58.6 °F 52.7 °F 81% 29.95 in 10.0 mi West 3.5 mph - N/A   Overcast
3:15 PM 57.6 °F 52.9 °F 84% 29.95 in 10.0 mi West 5.8 mph - N/A   Overcast
3:55 PM 58.6 °F 53.1 °F 82% 29.93 in 10.0 mi NW 5.8 mph - N/A   Overcast
4:15 PM 58.3 °F 53.1 °F 83% 29.93 in 10.0 mi WNW 3.5 mph - N/A   Overcast
4:35 PM 59.2 °F 53.1 °F 80% 29.93 in 10.0 mi West 3.5 mph - N/A   Overcast
4:55 PM 59.9 °F 52.5 °F 77% 29.93 in 10.0 mi Calm Calm - N/A   Overcast
5:15 PM 59.4 °F 52.5 °F 78% 29.93 in 10.0 mi West 3.5 mph - N/A   Overcast
5:35 PM 59.2 °F 52.5 °F 79% 29.93 in 10.0 mi Calm Calm - N/A   Overcast
5:55 PM 59.2 °F 52.9 °F 80% 29.94 in 10.0 mi Calm Calm - N/A   Overcast
6:15 PM 59.2 °F 53.1 °F 80% 29.93 in 10.0 mi West 3.5 mph - N/A   Overcast
6:35 PM 59.0 °F 53.1 °F 81% 29.93 in 10.0 mi West 3.5 mph - N/A   Overcast
6:55 PM 59.0 °F 53.6 °F 82% 29.93 in 10.0 mi Calm Calm - N/A   Overcast
7:15 PM 58.5 °F 53.6 °F 84% 29.93 in 10.0 mi Calm Calm - N/A   Overcast
7:35 PM 58.5 °F 53.4 °F 83% 29.93 in 10.0 mi Calm Calm - N/A   Overcast
7:55 PM 58.1 °F 53.6 °F 85% 29.93 in 10.0 mi Calm Calm - N/A   Overcast
8:15 PM 57.7 °F 54.1 °F 88% 29.94 in 10.0 mi Calm Calm - N/A   Overcast
8:35 PM 57.9 °F 54.5 °F 88% 29.94 in 10.0 mi Calm Calm - N/A   Overcast
8:55 PM 57.2 °F 56.1 °F 96% 29.95 in 10.0 mi Calm Calm - N/A   Overcast
9:15 PM 57.0 °F 56.1 °F 97% 29.95 in 10.0 mi Calm Calm - N/A   Overcast
9:35 PM 57.4 °F 56.1 °F 96% 29.96 in 10.0 mi Calm Calm - N/A   Overcast
9:55 PM 57.4 °F 55.9 °F 95% 29.96 in 10.0 mi Calm Calm - N/A   Overcast
10:15 PM 57.0 °F 55.9 °F 96% 29.96 in 10.0 mi Calm Calm - N/A   Overcast
10:35 PM 56.5 °F 55.9 °F 98% 29.95 in 10.0 mi Calm Calm - N/A   Overcast
10:55 PM 55.8 °F 55.6 °F 99% 29.96 in 7.0 mi Calm Calm - N/A   Overcast
11:15 PM 55.9 °F 55.9 °F 100% 29.95 in 7.0 mi Calm Calm - N/A   Overcast
11:35 PM 54.9 °F 54.9 °F 100% 29.94 in 7.0 mi Calm Calm - N/A   Overcast
11:55 PM 53.8 °F 53.8 °F 100% 29.94 in 3.0 mi Calm Calm - N/A   Mostly Cloudy